• In Portugal
  • List of Countries
  • For 7 days
  • Water Temperature
  • Satellite Maps
  • Weather Map
  • Weather Widgets
  • user-avatar
    Login

    Hourly Weather Ulaangom

    Today, 23 October, Monday

    Time Temperature Precipitation Wind Pressure Humidity
    00:00 +2°C° 0 mm 2 mps 625 mmHg 57%
    01:00 +1°C° 0 mm 2 mps 625 mmHg 57%
    02:00 +1°C° 0 mm 2 mps 625 mmHg 58%
    03:00 +1°C° 0 mm 2 mps 625 mmHg 58%
    04:00 +1°C° 0 mm 2 mps 625 mmHg 58%
    05:00 +1°C° 0 mm 2 mps 626 mmHg 59%
    06:00 +1°C° 0 mm 2 mps 625 mmHg 59%
    07:00 +2°C° 0 mm 2 mps 626 mmHg 54%
    08:00 +3°C° 0 mm 2 mps 627 mmHg 50%
    09:00 +6°C° 0 mm 1 mps 627 mmHg 45%
    10:00 +6°C° 0 mm 2 mps 627 mmHg 43%
    11:00 +6°C° 0 mm 2 mps 627 mmHg 41%
    12:00 +7°C° 0 mm 2 mps 628 mmHg 40%
    13:00 +7°C° 0 mm 2 mps 628 mmHg 41%
    14:00 +7°C° 0 mm 2 mps 628 mmHg 42%
    15:00 +6°C° 0 mm 2 mps 628 mmHg 44%
    16:00 +6°C° 0 mm 1 mps 628 mmHg 49%
    17:00 +5°C° 0 mm 1 mps 627 mmHg 55%
    18:00 +3°C° 0 mm 1 mps 627 mmHg 60%
    19:00 +3°C° 0 mm 1 mps 627 mmHg 61%
    20:00 +1°C° 0 mm 0 mps 627 mmHg 61%
    21:00 +1°C° 0 mm 0 mps 627 mmHg 62%
    22:00 +1°C° 0 mm 0 mps 627 mmHg 62%
    23:00 +1°C° 0 mm 0 mps 627 mmHg 62%

    Tomorrow, 24 October, Tuesday

    Time Temperature Precipitation Wind Pressure Humidity
    00:00 +1°C° 0 mm 1 mps 627 mmHg 61%
    01:00 +1°C° 0 mm 1 mps 627 mmHg 62%
    02:00 +1°C° 0 mm 1 mps 627 mmHg 62%
    03:00 +1°C° 0 mm 1 mps 627 mmHg 62%
    04:00 +1°C° 0 mm 1 mps 627 mmHg 63%
    05:00 0°C° 0 mm 1 mps 627 mmHg 63%
    06:00 0°C° 0 mm 1 mps 627 mmHg 64%
    07:00 +2°C° 0 mm 1 mps 627 mmHg 58%
    08:00 +3°C° 0 mm 1 mps 628 mmHg 52%
    09:00 +5°C° 0 mm 1 mps 628 mmHg 47%
    10:00 +5°C° 0 mm 2 mps 628 mmHg 44%
    11:00 +5°C° 0 mm 2 mps 628 mmHg 42%
    12:00 +5°C° 0 mm 3 mps 628 mmHg 39%
    13:00 +5°C° 0 mm 3 mps 628 mmHg 40%
    14:00 +5°C° 0 mm 3 mps 628 mmHg 40%
    15:00 +5°C° 0 mm 3 mps 628 mmHg 41%
    16:00 +4°C° 0 mm 3 mps 627 mmHg 44%
    17:00 +4°C° 0 mm 2 mps 627 mmHg 48%
    18:00 +2°C° 0 mm 2 mps 627 mmHg 51%
    19:00 +2°C° 0 mm 2 mps 627 mmHg 51%
    20:00 +2°C° 0 mm 2 mps 627 mmHg 50%
    21:00 +2°C° 0 mm 2 mps 627 mmHg 50%
    22:00 +2°C° 0 mm 2 mps 627 mmHg 51%
    23:00 +2°C° 0 mm 2 mps 627 mmHg 52%

    Day after tomorrow, 25 October, Wednesday

    Time Temperature Precipitation Wind Pressure Humidity
    00:00 +2°C° 0 mm 2 mps 627 mmHg 53%
    01:00 +2°C° 0 mm 2 mps 627 mmHg 54%
    02:00 +1°C° 0 mm 2 mps 627 mmHg 55%
    03:00 +1°C° 0 mm 2 mps 627 mmHg 56%
    04:00 0°C° 0 mm 3 mps 627 mmHg 57%
    05:00 0°C° 0 mm 3 mps 627 mmHg 58%
    06:00 0°C° 0 mm 3 mps 627 mmHg 60%
    07:00 +1°C° 0 mm 3 mps 627 mmHg 56%
    08:00 +2°C° 0 mm 3 mps 627 mmHg 51%
    09:00 +3°C° 0 mm 3 mps 627 mmHg 47%
    10:00 +3°C° 0 mm 5 mps 627 mmHg 45%
    11:00 +4°C° 0 mm 6 mps 626 mmHg 43%
    12:00 +5°C° 0 mm 7 mps 626 mmHg 41%
    13:00 +5°C° 0 mm 7 mps 625 mmHg 41%
    14:00 +5°C° 0 mm 7 mps 625 mmHg 41%
    15:00 +5°C° 0 mm 7 mps 624 mmHg 42%
    16:00 +4°C° 0 mm 7 mps 624 mmHg 45%
    17:00 +3°C° 0 mm 6 mps 623 mmHg 49%
    18:00 +1°C° 0 mm 6 mps 623 mmHg 52%
    19:00 +1°C° 0.1 mm 6 mps 623 mmHg 54%
    20:00 +1°C° 0.1 mm 6 mps 623 mmHg 55%
    21:00 -1°C° 0.1 mm 7 mps 623 mmHg 56%
    22:00 -1°C° 0 mm 7 mps 623 mmHg 54%
    23:00 -1°C° 0 mm 7 mps 622 mmHg 53%

    26 October, Thursday

    Time Temperature Precipitation Wind Pressure Humidity
    00:00 -1°C° 0 mm 8 mps 622 mmHg 51%
    01:00 -2°C° 0 mm 8 mps 622 mmHg 48%
    02:00 -4°C° 0 mm 9 mps 622 mmHg 44%
    03:00 -4°C° 0 mm 9 mps 623 mmHg 41%
    04:00 -6°C° 0 mm 8 mps 623 mmHg 39%
    05:00 -7°C° 0 mm 8 mps 623 mmHg 37%
    06:00 -8°C° 0 mm 7 mps 623 mmHg 34%
    07:00 -8°C° 0 mm 6 mps 624 mmHg 33%
    08:00 -6°C° 0 mm 5 mps 625 mmHg 31%
    09:00 -5°C° 0 mm 4 mps 626 mmHg 29%
    10:00 -6°C° 0 mm 5 mps 626 mmHg 28%
    11:00 -5°C° 0 mm 5 mps 626 mmHg 27%
    12:00 -5°C° 0 mm 6 mps 627 mmHg 26%
    13:00 -5°C° 0 mm 6 mps 627 mmHg 26%
    14:00 -5°C° 0 mm 6 mps 627 mmHg 27%
    15:00 -6°C° 0 mm 6 mps 628 mmHg 27%
    16:00 -6°C° 0 mm 5 mps 628 mmHg 29%
    17:00 -7°C° 0 mm 4 mps 629 mmHg 32%
    18:00 -6°C° 0 mm 3 mps 629 mmHg 34%
    19:00 -6°C° 0 mm 2 mps 630 mmHg 35%
    20:00 -6°C° 0 mm 2 mps 630 mmHg 35%
    21:00 -6°C° 0 mm 2 mps 630 mmHg 36%
    22:00 -6°C° 0 mm 2 mps 631 mmHg 36%
    23:00 -6°C° 0 mm 2 mps 631 mmHg 37%

    27 October, Friday

    Time Temperature Precipitation Wind Pressure Humidity
    00:00 -6°C° 0 mm 2 mps 631 mmHg 37%
    01:00 -7°C° 0 mm 2 mps 631 mmHg 37%
    02:00 -6°C° 0 mm 1 mps 631 mmHg 38%
    03:00 -6°C° 0 mm 1 mps 632 mmHg 38%
    04:00 -6°C° 0 mm 1 mps 632 mmHg 38%
    05:00 -6°C° 0 mm 1 mps 632 mmHg 38%
    06:00 -6°C° 0 mm 1 mps 632 mmHg 38%
    07:00 -4°C° 0 mm 1 mps 633 mmHg 35%
    08:00 -3°C° 0 mm 1 mps 633 mmHg 33%
    09:00 -2°C° 0 mm 1 mps 634 mmHg 30%
    10:00 -2°C° 0 mm 1 mps 634 mmHg 29%
    11:00 -3°C° 0 mm 2 mps 634 mmHg 28%
    12:00 -3°C° 0 mm 2 mps 634 mmHg 28%
    13:00 -3°C° 0 mm 2 mps 634 mmHg 28%
    14:00 -3°C° 0 mm 2 mps 634 mmHg 29%
    15:00 -3°C° 0 mm 2 mps 633 mmHg 30%
    16:00 -3°C° 0 mm 2 mps 633 mmHg 33%
    17:00 -4°C° 0 mm 2 mps 633 mmHg 37%
    18:00 -5°C° 0 mm 2 mps 633 mmHg 41%
    19:00 -5°C° 0 mm 2 mps 633 mmHg 42%
    20:00 -6°C° 0 mm 2 mps 633 mmHg 43%
    21:00 -4°C° 0 mm 1 mps 633 mmHg 43%
    22:00 -6°C° 0 mm 2 mps 633 mmHg 44%
    23:00 -6°C° 0 mm 2 mps 633 mmHg 45%

    28 October, Saturday

    Time Temperature Precipitation Wind Pressure Humidity
    00:00 -6°C° 0 mm 2 mps 633 mmHg 45%
    01:00 -7°C° 0 mm 2 mps 633 mmHg 47%
    02:00 -7°C° 0 mm 2 mps 632 mmHg 48%
    03:00 -7°C° 0 mm 2 mps 632 mmHg 49%
    04:00 -7°C° 0 mm 2 mps 632 mmHg 49%
    05:00 -7°C° 0 mm 2 mps 632 mmHg 50%
    06:00 -7°C° 0 mm 2 mps 632 mmHg 51%
    07:00 -8°C° 0 mm 3 mps 632 mmHg 47%
    08:00 -7°C° 0 mm 3 mps 632 mmHg 44%
    09:00 -6°C° 0 mm 3 mps 633 mmHg 41%
    10:00 -5°C° 0 mm 4 mps 632 mmHg 39%
    11:00 -4°C° 0 mm 4 mps 632 mmHg 37%
    12:00 -3°C° 0 mm 4 mps 632 mmHg 35%
    13:00 -3°C° 0 mm 4 mps 631 mmHg 35%
    14:00 -3°C° 0 mm 4 mps 631 mmHg 35%
    15:00 -3°C° 0 mm 4 mps 630 mmHg 35%
    16:00 -4°C° 0 mm 4 mps 630 mmHg 38%
    17:00 -5°C° 0 mm 3 mps 630 mmHg 40%
    18:00 -6°C° 0 mm 3 mps 630 mmHg 43%
    19:00 -6°C° 0 mm 3 mps 630 mmHg 43%
    20:00 -6°C° 0 mm 3 mps 629 mmHg 43%
    21:00 -6°C° 0 mm 3 mps 629 mmHg 43%
    22:00 -6°C° 0 mm 3 mps 629 mmHg 44%
    23:00 -5°C° 0 mm 3 mps 628 mmHg 45%

    29 October, Sunday

    Time Temperature Precipitation Wind Pressure Humidity
    00:00 -5°C° 0 mm 3 mps 628 mmHg 46%
    01:00 -5°C° 0 mm 4 mps 628 mmHg 46%
    02:00 -5°C° 0 mm 4 mps 628 mmHg 46%
    03:00 -5°C° 0 mm 4 mps 628 mmHg 46%
    04:00 -5°C° 0 mm 4 mps 628 mmHg 47%
    05:00 -5°C° 0 mm 3 mps 627 mmHg 48%
    06:00 -5°C° 0 mm 3 mps 627 mmHg 49%
    07:00 -4°C° 0 mm 3 mps 627 mmHg 47%
    08:00 -4°C° 0 mm 4 mps 627 mmHg 45%
    09:00 -3°C° 0 mm 4 mps 628 mmHg 43%
    10:00 -2°C° 0 mm 5 mps 627 mmHg 42%
    11:00 -2°C° 0 mm 6 mps 627 mmHg 41%
    12:00 -1°C° 0 mm 6 mps 627 mmHg 40%
    13:00 -1°C° 0 mm 7 mps 627 mmHg 40%
    14:00 -1°C° 0 mm 7 mps 627 mmHg 39%
    15:00 0°C° 0 mm 8 mps 627 mmHg 39%
    16:00 -2°C° 0 mm 7 mps 627 mmHg 41%
    17:00 -3°C° 0 mm 7 mps 627 mmHg 43%
    18:00 -4°C° 0 mm 6 mps 627 mmHg 45%
    19:00 -4°C° 0 mm 6 mps 627 mmHg 47%
    20:00 -4°C° 0 mm 5 mps 627 mmHg 48%
    21:00 -5°C° 0 mm 5 mps 627 mmHg 50%
    22:00 -5°C° 0 mm 5 mps 627 mmHg 49%
    23:00 -4°C° 0 mm 4 mps 627 mmHg 49%
    Show more